Location: Sigmaringen
(48.0900°N, 9.2120°E)
Time: 04:35:36
(UTC+01:00)

ISS - Pass Details

Date: 10 February 2018
Orbit: 402 x 407 km, 51.6° (Epoch: 25 February)

Event Time Altitude Azimuth Distance (km) Brightness Sun altitude
Rises 20:16:30 0° 280° (W) 2,320 1.3 -27.0°
Reaches altitude 10° 20:20:20 10° 234° (SW) 1,455 -0.5 -27.6°
Enters shadow 20:20:38 10° 229° (SW) 1,444 -0.6 -27.7°
